EW1613 Weather Reports


time (UTC)temp
C
wind
direction
speed
KPH
gust
KPH
rain 1hr
cm
rain 24hr
cm
rain mn
cm
humidity
%
barometer
mb
20260507073451 18 295 0.0 0.0 0.00 0.41 0.00 79 1013.7
20260507072946 18 309 0.0 0.0 0.00 0.41 0.00 79 1013.6
20260507072436 18 311 0.0 0.0 0.00 0.41 0.00 79 1013.6
20260507071952 18 311 0.0 0.0 0.00 0.41 0.00 80 1013.6
20260507071508 17 5 0.0 0.0 0.00 0.41 0.00 81 1013.6
20260507070935 17 11 0.0 0.0 0.00 0.41 0.00 81 1013.5
20260507070449 17 14 0.0 0.0 0.00 0.41 0.00 82 1013.4
20260507065945 17 28 0.0 0.0 0.00 0.41 0.00 83 1013.4
20260507065452 17 28 0.0 0.0 0.00 0.41 0.00 84 1013.3
20260507064948 16 28 0.0 0.0 0.00 0.41 0.00 84 1013.4
20260507064438 16 28 0.0 0.0 0.00 0.41 0.00 85 1013.4
20260507063955 16 27 0.0 0.0 0.00 0.41 0.00 86 1013.3
20260507063445 15 304 0.0 0.0 0.00 0.41 0.00 87 1013.2
20260507063002 15 319 0.0 1.6 0.00 0.41 0.00 87 1013.2
20260507062451 15 323 0.0 3.2 0.00 0.41 0.00 87 1013.3
20260507061948 15 323 1.6 6.4 0.00 0.41 0.00 88 1013.3
20260507061504 15 321 0.0 6.4 0.00 0.41 0.00 88 1013.2
20260507060933 14 325 3.2 6.4 0.00 0.41 0.00 90 1013.3
20260507060450 14 321 1.6 4.8 0.00 0.41 0.00 92 1013.3
20260507055941 14 318 1.6 4.8 0.00 0.41 0.00 93 1013.2
20260507055437 13 309 0.0 6.4 0.00 0.41 0.00 93 1013.2
20260507054953 13 302 0.0 6.4 0.00 0.41 0.00 93 1013.1
20260507054503 13 305 3.2 6.4 0.00 0.41 0.00 94 1013.1
20260507053939 13 306 1.6 4.8 0.00 0.41 0.00 94 1013.1
20260507053455 13 241 0.0 3.2 0.00 0.41 0.00 94 1013.0
20260507052944 13 240 0.0 1.6 0.00 0.41 0.00 95 1013.0
20260507052441 13 237 0.0 1.6 0.00 0.41 0.00 95 1012.9
20260507052000 13 323 0.0 1.6 0.00 0.41 0.00 95 1012.9
20260507051456 13 323 0.0 1.6 0.00 0.41 0.00 95 1012.8
20260507050943 12 323 0.0 0.0 0.00 0.41 0.00 95 1012.8
20260507050438 12 323 0.0 0.0 0.00 0.41 0.00 94 1012.7
20260507050009 12 323 0.0 0.0 0.00 0.41 0.00 95 1012.7
20260507045438 12 323 0.0 0.0 0.00 0.61 0.00 94 1012.6
20260507045001 12 323 0.0 0.0 0.00 0.61 0.00 94 1012.6
20260507044450 12 323 0.0 0.0 0.00 0.61 0.00 94 1012.6
20260507043938 12 323 0.0 1.6 0.00 0.61 0.00 94 1012.6
20260507043454 12 323 0.0 1.6 0.00 0.61 0.00 94 1012.5
20260507042949 12 323 0.0 0.0 0.00 0.61 0.00 94 1012.4
20260507042438 12 323 0.0 0.0 0.00 0.61 0.00 94 1012.4
20260507041934 12 323 0.0 0.0 0.00 0.61 0.00 94 1012.3
20260507041451 12 323 0.0 0.0 0.00 0.61 0.00 94 1012.3
20260507041006 12 323 0.0 0.0 0.00 0.61 0.00 94 1012.2
20260507040500 12 323 0.0 0.0 0.00 0.61 0.00 94 1012.2
20260507040016 12 323 0.0 0.0 0.00 0.61 0.00 94 1012.2
20260507035443 12 323 0.0 0.0 0.00 0.71 0.00 94 1012.1
20260507034959 12 323 0.0 0.0 0.00 0.71 0.00 94 1012.1
20260507034449 12 323 0.0 0.0 0.00 0.71 0.00 94 1012.0
20260507033946 12 323 0.0 0.0 0.00 0.71 0.00 94 1012.0
20260507033437 12 323 0.0 0.0 0.00 0.71 0.00 94 1012.0
20260507032935 12 323 0.0 0.0 0.00 0.71 0.00 94 1012.0
20260507032444 12 323 0.0 0.0 0.00 0.71 0.00 94 1012.0
20260507031940 12 323 0.0 0.0 0.00 0.71 0.00 94 1011.9
20260507031438 12 323 0.0 0.0 0.00 0.71 0.00 94 1011.9
20260507031011 12 323 0.0 0.0 0.00 0.71 0.00 94 1011.9
20260507030459 12 323 0.0 0.0 0.00 0.71 0.00 94 1011.9
20260507025935 12 323 0.0 0.0 0.00 0.71 0.00 94 1011.9
20260507025451 13 323 0.0 0.0 0.00 0.71 0.00 94 1011.9
20260507024941 13 323 0.0 1.6 0.00 0.71 0.00 94 1011.9
20260507024437 13 323 0.0 1.6 0.00 0.71 0.00 94 1011.9
20260507023955 13 323 0.0 0.0 0.00 0.71 0.00 94 1011.9
20260507023450 13 323 0.0 0.0 0.00 0.71 0.00 94 1011.9
20260507022939 13 323 0.0 0.0 0.00 0.71 0.00 94 1012.0
20260507022456 12 323 0.0 0.0 0.00 0.71 0.00 93 1011.9
20260507021947 13 323 0.0 0.0 0.00 0.71 0.00 93 1012.0
20260507021443 13 323 0.0 0.0 0.00 0.71 0.00 93 1012.0
20260507020934 13 323 0.0 0.0 0.00 0.71 0.00 93 1012.0
20260507020510 13 323 0.0 0.0 0.00 0.71 0.00 93 1011.9
20260507015947 13 323 0.0 0.0 0.00 0.71 0.00 93 1012.0
20260507015437 13 323 0.0 0.0 0.00 0.71 0.00 93 1011.8
20260507014934 13 323 0.0 0.0 0.00 0.71 0.00 93 1011.8
20260507014442 13 323 0.0 0.0 0.00 0.71 0.00 93 1011.8
20260507013940 13 323 0.0 0.0 0.00 0.71 0.00 93 1011.8
20260507013455 13 323 0.0 0.0 0.00 0.71 0.00 93 1011.8
20260507012945 13 323 0.0 0.0 0.00 0.71 0.00 93 1011.7
20260507012502 13 323 0.0 0.0 0.00 0.71 0.00 93 1011.8
20260507011952 13 323 0.0 0.0 0.00 0.71 0.00 93 1011.7
20260507011440 13 323 0.0 0.0 0.00 0.71 0.00 93 1011.7
20260507010938 13 323 0.0 0.0 0.00 0.71 0.00 93 1011.8
20260507010456 13 323 0.0 0.0 0.00 0.71 0.00 93 1011.7
20260507010007 13 323 0.0 0.0 0.00 0.71 0.00 93 1011.7
20260507005441 13 323 0.0 0.0 0.00 0.71 0.00 93 1011.7
20260507004958 13 323 0.0 0.0 0.00 0.71 0.00 93 1011.7
20260507004447 13 323 0.0 3.2 0.00 0.71 0.00 93 1011.7
20260507003944 13 323 1.6 3.2 0.00 0.71 0.00 93 1011.7
20260507003435 13 322 0.0 3.2 0.00 0.71 0.00 93 1011.7
20260507002952 13 321 0.0 3.2 0.00 0.71 0.00 93 1011.7
20260507002447 13 320 1.6 3.2 0.00 0.71 0.00 93 1011.8
20260507001939 13 319 1.6 3.2 0.00 0.71 0.00 93 1011.8
20260507001455 13 319 0.0 3.2 0.00 0.71 0.00 93 1011.8
20260507000948 13 319 0.0 3.2 0.00 0.71 0.00 93 1011.8
20260507000437 13 319 1.6 3.2 0.00 0.71 0.00 93 1011.8
20260506235933 13 321 0.0 1.6 0.00 0.71 0.00 93 1011.7
20260506235450 13 321 0.0 0.0 0.00 0.71 0.00 93 1011.7
20260506234938 13 321 0.0 0.0 0.00 0.71 0.00 93 1011.8
20260506234435 13 321 0.0 0.0 0.00 0.71 0.00 93 1011.8
20260506234010 13 321 0.0 0.0 0.00 0.71 0.00 93 1011.7
20260506233455 13 321 0.0 0.0 0.00 0.71 0.00 93 1011.7
20260506232949 13 321 0.0 0.0 0.00 0.71 0.00 93 1011.7
20260506232443 13 321 0.0 0.0 0.00 0.71 0.00 93 1011.8
20260506231940 13 321 0.0 0.0 0.00 0.71 0.00 93 1011.8
20260506231450 14 321 0.0 3.2 0.00 0.71 0.00 93 1011.8
20260506231005 14 321 0.0 3.2 0.00 0.71 0.00 93 1011.8
20260506230501 14 321 0.0 4.8 0.00 0.71 0.00 92 1011.8
20260506225956 14 321 1.6 4.8 0.00 0.71 0.00 93 1011.7
20260506225512 14 319 3.2 4.8 0.00 0.71 0.00 93 1011.7
20260506224940 14 319 1.6 4.8 0.00 0.71 0.00 93 1011.7
20260506224456 14 315 1.6 3.2 0.00 0.71 0.00 93 1011.7
20260506223952 15 315 0.0 3.2 0.00 0.71 0.00 93 1011.7
20260506223443 15 315 1.6 3.2 0.00 0.71 0.00 93 1011.8
20260506222959 15 315 0.0 0.0 0.00 0.71 0.00 93 1011.8
20260506222452 15 315 0.0 0.0 0.00 0.71 0.00 93 1011.8
20260506221941 15 315 0.0 0.0 0.00 0.71 0.00 93 1011.7
20260506221458 15 315 0.0 0.0 0.00 0.71 0.00 93 1011.7
20260506220947 15 315 0.0 0.0 0.00 0.71 0.00 93 1011.7
20260506220438 15 315 0.0 0.0 0.00 0.71 0.00 93 1011.7
20260506215955 15 315 0.0 3.2 0.00 0.71 0.15 93 1011.7
20260506215449 15 315 0.0 3.2 0.00 0.71 0.15 93 1011.6
20260506214959 15 315 1.6 3.2 0.00 0.71 0.15 93 1011.7
20260506214456 15 315 0.0 3.2 0.00 0.71 0.15 93 1011.7
20260506213948 15 315 0.0 3.2 0.00 0.71 0.15 92 1011.7
20260506213444 15 315 1.6 4.8 0.00 0.71 0.15 92 1011.6
20260506212934 15 339 1.6 4.8 0.00 0.71 0.15 92 1011.6
20260506212451 15 355 0.0 1.6 0.00 0.71 0.15 92 1011.6
20260506211947 15 355 0.0 1.6 0.00 0.71 0.15 92 1011.6
20260506211436 15 355 0.0 0.0 0.00 0.71 0.15 92 1011.6
20260506210950 15 355 0.0 0.0 0.00 0.71 0.15 92 1011.6
20260506210441 15 355 0.0 0.0 0.00 0.71 0.15 92 1011.5
20260506205939 15 355 0.0 0.0 0.00 0.71 0.15 92 1011.6
20260506205516 15 355 0.0 0.0 0.00 0.71 0.15 92 1011.4
20260506204944 15 355 0.0 0.0 0.00 0.71 0.15 92 1011.4
20260506204501 15 355 0.0 0.0 0.00 0.71 0.15 92 1011.4
20260506203947 15 355 0.0 0.0 0.00 0.71 0.15 92 1011.3
20260506203438 15 355 0.0 0.0 0.00 0.71 0.15 92 1011.4
20260506202952 15 355 0.0 1.6 0.00 0.71 0.15 92 1011.4
20260506202506 15 355 0.0 3.2 0.00 0.71 0.15 92 1011.3
20260506201935 15 355 1.6 3.2 0.00 0.71 0.15 92 1011.3
20260506201447 15 355 0.0 1.6 0.00 0.71 0.15 91 1011.3
20260506200940 15 355 0.0 4.8 0.00 0.71 0.15 91 1011.3
20260506200453 15 355 0.0 4.8 0.00 0.71 0.15 91 1011.2
20260506195941 16 355 0.0 6.4 0.00 0.71 0.15 91 1011.1
20260506195458 16 339 0.0 4.8 0.00 0.71 0.15 91 1011.0
20260506194947 16 339 1.6 4.8 0.00 0.71 0.15 90 1011.0
20260506194458 16 26 1.6 4.8 0.00 0.71 0.15 90 1010.9
20260506193947 16 63 1.6 3.2 0.00 0.71 0.15 90 1010.9
20260506193438 16 65 0.0 3.2 0.00 0.71 0.15 89 1010.7
20260506192952 16 65 0.0 0.0 0.00 0.71 0.15 89 1010.8
20260506192447 16 65 0.0 3.2 0.00 0.71 0.15 89 1010.8
20260506191938 16 65 0.0 3.2 0.00 0.71 0.15 89 1010.7
20260506191433 16 65 0.0 1.6 0.00 0.71 0.15 89 1010.7
20260506190949 16 65 0.0 3.2 0.00 0.71 0.15 89 1010.7
20260506190440 16 65 1.6 4.8 0.00 0.71 0.15 88 1010.5
20260506185936 16 65 1.6 4.8 0.00 0.71 0.15 88 1010.5
20260506185451 16 59 1.6 4.8 0.00 0.71 0.15 88 1010.5
20260506185002 16 59 3.2 4.8 0.00 0.71 0.15 88 1010.5
20260506184435 16 28 0.0 3.2 0.00 0.71 0.15 88 1010.5
20260506183946 16 27 0.0 4.8 0.00 0.71 0.15 88 1010.4
20260506183443 16 26 1.6 6.4 0.00 0.71 0.15 88 1010.3
20260506182934 17 24 1.6 4.8 0.00 0.71 0.15 87 1010.1
20260506182450 17 38 0.0 4.8 0.00 0.71 0.15 87 1010.0
20260506181939 17 38 0.0 4.8 0.00 0.71 0.15 87 1010.0
20260506181436 17 43 1.6 6.4 0.00 0.71 0.15 87 1009.9
20260506180951 17 41 0.0 6.4 0.00 0.71 0.15 87 1010.0
20260506180438 17 45 0.0 8.0 0.00 0.71 0.15 87 1010.0
20260506175936 17 40 1.6 8.0 0.00 0.71 0.15 87 1010.0
20260506175450 17 55 1.6 8.0 0.00 0.71 0.15 87 1010.0
20260506174938 17 55 4.8 8.0 0.00 0.71 0.15 87 1010.0
20260506174435 17 78 3.2 8.0 0.00 0.71 0.15 87 1009.9
20260506173951 17 53 3.2 9.7 0.00 0.71 0.15 87 1009.8
20260506173440 17 69 4.8 9.7 0.00 0.71 0.15 86 1009.9
20260506172935 17 20 4.8 8.0 0.00 0.71 0.15 87 1010.1
20260506172451 17 44 3.2 8.0 0.00 0.71 0.15 87 1010.0
20260506171942 17 51 3.2 8.0 0.00 0.71 0.15 87 1009.7
20260506171437 17 60 3.2 8.0 0.00 0.71 0.15 87 1009.6
20260506170946 17 61 3.2 8.0 0.00 0.71 0.15 87 1009.7
20260506170443 17 69 3.2 12.9 0.00 0.71 0.15 87 1009.6
20260506165934 17 62 8.0 12.9 0.00 0.71 0.15 87 1009.6
20260506165450 17 61 4.8 8.0 0.00 0.71 0.15 87 1009.5
20260506164943 17 76 3.2 12.9 0.00 0.71 0.15 87 1009.7
20260506164434 17 68 6.4 14.5 0.00 0.71 0.15 86 1009.8
20260506164010 17 61 6.4 12.9 0.00 0.71 0.15 86 1009.7
20260506163444 17 71 4.8 9.7 0.00 0.71 0.15 86 1009.8
20260506163017 17 76 4.8 9.7 0.00 0.71 0.15 86 1009.7
20260506162446 17 86 4.8 9.7 0.00 0.71 0.15 86 1009.7
20260506161941 17 82 4.8 12.9 0.00 0.71 0.15 85 1009.6
20260506161458 17 86 8.0 12.9 0.00 0.71 0.15 85 1009.7
20260506160952 18 86 4.8 8.0 0.00 0.71 0.15 86 1009.7
20260506160443 17 75 3.2 8.0 0.00 0.71 0.15 86 1009.8
20260506155959 17 67 3.2 8.0 0.00 0.71 0.15 86 1009.8
20260506155448 17 70 3.2 11.3 0.00 0.71 0.15 86 1009.9
20260506154943 17 87 6.4 11.3 0.00 0.71 0.15 85 1009.8
20260506154432 17 76 3.2 12.9 0.00 0.71 0.15 86 1009.9
20260506153949 17 53 4.8 12.9 0.00 0.71 0.15 86 1009.8
20260506153440 17 71 3.2 9.7 0.00 0.71 0.15 86 1009.8
20260506152957 18 49 4.8 9.7 0.00 0.71 0.15 86 1009.7
20260506152452 18 63 4.8 9.7 0.00 0.71 0.15 87 1009.7
20260506151949 18 59 4.8 9.7 0.00 0.71 0.15 86 1009.7
20260506151438 18 67 3.2 11.3 0.00 0.71 0.15 86 1009.9
20260506150954 18 74 3.2 11.3 0.00 0.71 0.15 86 1009.9
20260506150445 18 39 1.6 8.0 0.00 0.71 0.15 87 1009.8
20260506145944 17 44 3.2 14.5 0.00 0.71 0.15 87 1009.8
20260506145434 17 41 4.8 14.5 0.00 0.71 0.15 87 1009.9
20260506145011 17 77 4.8 11.3 0.00 0.71 0.15 88 1009.8
20260506144446 17 85 4.8 8.0 0.00 0.71 0.15 88 1009.9
20260506143935 17 45 4.8 6.4 0.00 0.71 0.15 89 1009.9
20260506143434 17 74 3.2 9.7 0.00 0.71 0.15 89 1010.0
20260506142945 17 74 4.8 9.7 0.00 0.71 0.15 89 1010.0
20260506142443 17 51 3.2 9.7 0.10 0.71 0.15 90 1010.1
20260506141933 17 31 1.6 9.7 0.10 0.71 0.15 91 1010.1
20260506141445 17 62 6.4 9.7 0.10 0.71 0.15 90 1010.1
20260506140934 17 69 4.8 9.7 0.10 0.71 0.15 91 1010.1
20260506140451 17 69 4.8 9.7 0.10 0.71 0.15 91 1010.1
20260506135949 17 74 4.8 11.3 0.10 0.71 0.15 91 1010.1
20260506135456 17 87 4.8 9.7 0.10 0.71 0.15 91 1010.1
20260506134951 17 88 3.2 6.4 0.10 0.71 0.15 91 1010.0
20260506134447 16 82 3.2 9.7 0.10 0.71 0.15 91 1010.0
20260506133936 16 76 4.8 11.3 0.10 0.71 0.15 91 1010.1
20260506133433 16 47 3.2 14.5 0.10 0.71 0.15 90 1010.1
20260506132952 16 90 6.4 14.5 0.10 0.71 0.15 90 1010.1
20260506132442 16 68 6.4 12.9 0.10 0.61 0.13 90 1010.1
20260506132000 16 24 1.6 6.4 0.20 0.61 0.13 90 1010.6
20260506131454 16 57 0.0 4.8 0.20 0.61 0.13 90 1010.7
20260506130944 16 57 1.6 4.8 0.30 0.61 0.13 90 1010.7
20260506130500 16 52 1.6 8.0 0.30 0.61 0.13 90 1010.7
20260506125955 16 57 3.2 8.0 0.30 0.61 0.13 90 1010.7
20260506125445 16 63 3.2 6.4 0.30 0.61 0.13 90 1010.7
20260506124943 16 74 3.2 4.8 0.30 0.61 0.13 90 1010.7
20260506124434 16 73 1.6 4.8 0.30 0.61 0.13 89 1010.6
20260506123948 17 84 0.0 4.8 0.30 0.61 0.13 89 1010.7
20260506123438 17 89 1.6 4.8 0.30 0.61 0.13 88 1010.7
20260506122932 17 143 1.6 6.4 0.30 0.61 0.13 88 1010.7
20260506122447 17 119 3.2 9.7 0.20 0.51 0.10 88 1010.8
20260506121957 17 82 3.2 9.7 0.10 0.41 0.08 87 1010.6
20260506121516 17 68 3.2 8.0 0.10 0.41 0.08 86 1010.6
20260506120945 17 51 4.8 8.0 0.00 0.30 0.05 86 1010.6
20260506120441 17 72 3.2 6.4 0.00 0.30 0.05 85 1010.8
20260506115957 17 58 1.6 6.4 0.00 0.30 0.05 86 1010.7
20260506115446 17 79 1.6 8.0 0.00 0.30 0.05 85 1010.8
20260506114944 17 73 4.8 8.0 0.00 0.30 0.05 85 1010.8
20260506114452 17 99 3.2 6.4 0.00 0.30 0.05 86 1010.8
20260506113945 17 105 1.6 9.7 0.00 0.30 0.05 86 1010.9
20260506113434 17 109 4.8 11.3 0.00 0.30 0.05 86 1011.0
20260506112950 17 109 3.2 11.3 0.00 0.30 0.05 86 1011.1
20260506112440 17 100 3.2 9.7 0.00 0.30 0.05 86 1011.1
20260506111937 17 86 3.2 6.4 0.00 0.30 0.05 86 1011.1
20260506111454 17 91 1.6 6.4 0.00 0.30 0.05 86 1011.1
20260506110941 16 72 1.6 6.4 0.00 0.30 0.05 86 1011.2
20260506110438 16 71 3.2 6.4 0.00 0.30 0.05 87 1011.2
20260506105955 16 82 1.6 6.4 0.00 0.30 0.05 87 1011.3
20260506105444 16 76 1.6 6.4 0.00 0.41 0.05 88 1011.3
20260506105002 16 90 3.2 6.4 0.00 0.41 0.05 88 1011.4
20260506104456 16 105 1.6 6.4 0.00 0.41 0.05 88 1011.5
20260506103944 16 113 1.6 6.4 0.00 0.41 0.05 88 1011.5
20260506103459 16 92 1.6 9.7 0.00 0.41 0.05 88 1011.5
20260506102954 16 87 3.2 9.7 0.00 0.41 0.05 88 1011.6
20260506102506 16 79 4.8 9.7 0.00 0.41 0.05 87 1011.4
20260506101932 16 69 4.8 12.9 0.00 0.41 0.05 87 1011.5
20260506101448 16 128 1.6 12.9 0.00 0.41 0.05 88 1011.6
20260506100938 16 82 4.8 9.7 0.00 0.41 0.05 88 1011.6
20260506100434 16 82 1.6 6.4 0.00 0.41 0.05 88 1011.6
20260506095953 16 77 1.6 4.8 0.00 0.41 0.05 88 1011.7
20260506095442 16 74 1.6 6.4 0.00 0.79 0.05 88 1011.8
20260506094958 16 71 0.0 6.4 0.00 0.79 0.05 88 1011.7
20260506094449 16 78 1.6 4.8 0.00 0.79 0.05 88 1011.7
20260506094007 16 74 1.6 4.8 0.00 0.79 0.05 88 1011.6
20260506093435 16 60 0.0 6.4 0.00 0.79 0.05 88 1011.7
20260506092951 16 44 0.0 6.4 0.00 0.79 0.05 88 1011.7
20260506092447 16 53 0.0 4.8 0.00 0.79 0.05 89 1011.7
20260506091955 16 46 1.6 6.4 0.00 0.79 0.05 89 1011.7
20260506091451 16 19 1.6 6.4 0.00 0.79 0.05 89 1011.7
20260506091006 16 63 1.6 6.4 0.00 0.79 0.05 89 1011.7
20260506090443 16 34 1.6 6.4 0.00 0.79 0.05 90 1011.8
20260506085933 16 32 3.2 8.0 0.00 0.89 0.05 90 1011.6
20260506085449 16 40 1.6 8.0 0.00 0.89 0.05 91 1011.6
20260506084945 15 62 3.2 6.4 0.00 0.89 0.05 91 1011.6
20260506084436 15 5 1.6 6.4 0.00 0.89 0.05 91 1011.6
20260506083954 15 24 1.6 8.0 0.00 0.89 0.05 92 1011.6
20260506083443 15 9 3.2 8.0 0.00 0.89 0.05 92 1011.5
20260506082939 15 28 0.0 4.8 0.00 0.89 0.05 92 1011.4
20260506082449 15 24 0.0 6.4 0.00 0.89 0.05 93 1011.4
20260506081945 15 24 3.2 6.4 0.00 0.89 0.05 93 1011.4
20260506081435 15 360 3.2 8.0 0.00 0.89 0.05 94 1011.4
20260506080933 15 9 1.6 8.0 0.00 0.89 0.05 94 1011.5
20260506080507 15 360 0.0 4.8 0.00 0.89 0.05 94 1011.5